Location: Champs
(48.8539°N, 2.6040°E)
Time: 18:23:19
(UTC+00:00)

Cosmos 1538 Rocket - Pass Details

Date: 28 May 2022
Orbit: 752 x 791 km, 74.0° (Epoch: 02 July)

Event Time Altitude Azimuth Distance (km) Brightness Sun altitude
Rises 21:43:18 0° 332° (NNW) 3,251 9.2 -14.4°
Reaches altitude 10° 21:45:46 10° 327° (NNW) 2,314 7.9 -14.6°
Maximum altitude 21:50:47 49° 254° (WSW) 984 4.6 -15.0°
Enters shadow 21:54:22 18° 187° (S) 1,783 5.4 -15.2°
